This demonstration page uses our WeatherBlox Daily Observations layout. Learn more.

Left ArrowRight Arrow

44.8408, -93.29828

Hourly Observations for September 11, 2017

Temp ( °F °C ) Dew Point ( °F °C ) Humidity (%) Winds ( mph kmh ) Pressure ( in mb ) Visibility ( mi km ) Precip ( " mm )
12:53 am 00:53 Clear 67 19.4 56 13.3 68 68 S 10 17 30.18 1022 10 16 0.00 0.00
1:53 am 01:53 Clear 66 18.9 55 12.8 68 68 S 13 20 30.18 1022 10 16 0.00 0.00
2:53 am 02:53 Clear 65 18.3 53 11.7 66 66 S 13 20 30.17 1022 10 16 0.00 0.00
3:53 am 03:53 Clear 64 17.8 52 11.1 65 65 S 13 20 30.16 1021 10 16 0.00 0.00
4:53 am 04:53 Clear 62 16.7 53 11.7 73 73 SE 7 11 30.16 1021 10 16 0.00 0.00
5:53 am 05:53 Clear 61 16.1 53 11.7 75 75 SE 7 11 30.15 1021 10 16 0.00 0.00
6:53 am 06:53 Mostly Sunny 60 15.6 54 12.2 80 80 SSE 7 11 30.15 1021 10 16 0.00 0.00
7:53 am 07:53 Partly Cloudy 63 17.2 55 12.8 76 76 SSE 9 15 30.15 1021 10 16 0.00 0.00
8:53 am 08:53 Mostly Cloudy 64 17.8 55 12.8 73 73 S 7 11 30.15 1021 10 16 0.00 0.00
9:53 am 09:53 Mostly Cloudy 66 18.9 57 13.9 73 73 S 7 11 30.16 1021 10 16 0.00 0.00
10:53 am 10:53 Partly Cloudy 70 21.1 59 15 68 68 VRB 6 9 30.16 1021 10 16 0.00 0.00
11:53 am 11:53 Mostly Sunny 74 23.3 60 15.6 62 62 SW 6 9 30.15 1021 10 16 0.00 0.00
12:53 pm 12:53 Mostly Sunny 76 24.4 60 15.6 58 58 SW 8 13 30.13 1020 10 16 0.00 0.00
1:53 pm 13:53 Mostly Sunny 78 25.6 61 16.1 56 56 WSW 9 15 30.11 1020 10 16 0.00 0.00
2:53 pm 14:53 Mostly Sunny 79 26.1 62 16.7 56 56 SSW 8 13 30.09 1019 10 16 0.00 0.00
3:53 pm 15:53 Mostly Sunny 82 27.8 63 17.2 53 53 W 9 15 30.08 1019 10 16 0.00 0.00
4:53 pm 16:53 Mostly Sunny 82 27.8 63 17.2 53 53 W 6 9 30.07 1018 10 16 0.00 0.00
5:53 pm 17:53 Sunny 81 27.2 63 17.2 54 54 W 7 11 30.06 1018 10 16 0.00 0.00
6:53 pm 18:53 Mostly Sunny 80 26.7 64 17.8 58 58 WSW 5 7 30.06 1018 10 16 0.00 0.00
7:53 pm 19:53 Mostly Clear 76 24.4 65 18.3 69 69 NNW 3 6 30.06 1018 10 16 0.00 0.00
8:53 pm 20:53 Clear 73 22.8 66 18.9 79 79 NNW 3 6 30.07 1018 10 16 0.00 0.00
9:53 pm 21:53 Clear 71 21.7 66 18.9 84 84 Calm 30.07 1018 10 16 0.00 0.00
10:53 pm 22:53 Clear 70 21.1 66 18.9 87 87 Calm 30.07 1018 9 14 0.00 0.00
11:53 pm 23:53 Clear 69 20.6 65 18.3 87 87 Calm 30.06 1018 7 11 0.00 0.00

Powered by AerisWeather